Location: Newark
(34.6283°N, 36.0776°E)
Time: 23:12:09
(UTC+00:00)

Tiros 1 despin weight - Pass Details

Date: 25 September 2019
Orbit: 594 x 643 km, 48.2° (Epoch: 17 October)

Event Time Altitude Azimuth Distance (km) Brightness Sun altitude
Rises 08:40:25 0° 263° (W) 2,906 ? 52.9°
Reaches altitude 10° 08:43:01 10° 274° (W) 1,992 ? 53.1°
Maximum altitude 08:47:00 29° 335° (NNW) 1,144 ? 53.3°
Drops below altitude 10° 08:50:57 10° 36° (NE) 1,968 ? 53.5°
Sets 08:53:29 0° 48° (NE) 2,865 ? 53.7°
